Preview of NWS' New Version of Forecast
This preview is not operational and should not be used for support decisions.

Regional Weather Roundup (RWR)

Issued by National Weather Service (NWS)

                            
000
ASUS42 KTBW 251915
RWRFL 
FLORIDA REGIONAL WEATHER ROUNDUP
NATIONAL WEATHER SERVICE TAMPA BAY RUSKIN FL
300 PM EDT TUE JUN 25 2019

NOTE: "FAIR" INDICATES FEW OR NO CLOUDS BELOW 12,000 FEET WITH NO
SIGNIFICANT WEATHER AND/OR OBSTRUCTIONS TO VISIBILITY.

FLZ001>010-012>015-112-114-115-252000-
PANHANDLE FLORIDA
  
CITY           SKY/WX    TMP DP  RH WIND       PRES   REMARKS
PENSACOLA      FAIR      94  72  48 W7        30.06S HX 102           
PENSACOLA NAS  FAIR      91  81  72 SW13      30.06S HX 111           
MILTON NAS     PTSUNNY   93  75  55 VRB6      30.06F HX 104           
CRESTVIEW      FAIR      96  70  42 W6        30.07F HX 102           
DUKE FIELD     CLOUDY    94  70  44 W6        30.05F HX 100           
VALPARAISO     PTSUNNY   91  77  62 S9        30.05F HX 105           
MARY ESTHER    PTSUNNY   90  79  68 SW10      30.05F HX 106           
TRI COUNTY     FAIR      94  75  54 VRB3      30.06S HX 105           
PANAMA CITY    FAIR      94  75  54 SW12      30.04F HX 105           
TYNDALL AFB    PTSUNNY   90  76  64 W8        30.06S HX 102           
APALACHICOLA   FAIR      94  75  54 NW13      30.06S HX 105           

STATION/POSITION SKY/WX   TEMP    WIND        PRES    WAVE   SWELL
                          AIR SEA DIR/SP/G            HT/PER HT/PER
                          (F)     (DEG/KT/KT) (MB)    (FT/S) (FT/S)
30.1N   87.6W                                   N/A     3/ 6
29.2N   88.2W                     240/  6/  6 1019.0F   2/ 6   2/ 6
PANAMA CITY BEAC           84 84  260/ 12/ 13 1018.8F
TOWER C          NOT AVBL

$$
FLZ011-016>038-118-127-128-134-139-239-252000-
NORTH FLORIDA
  
CITY           SKY/WX    TMP DP  RH WIND       PRES   REMARKS
MARIANNA       FAIR      93  73  52 W6        30.05S HX 102           
TALLAHASSEE    PTSUNNY   94  75  54 NW8       30.04F HX 105           
PERRY          FAIR      93  75  55 N9        30.05F HX 104           
LIVE OAK       MOSUNNY   93  73  52 W5        30.04F HX 102           
CROSS CITY     FAIR      94  74  53 W10       30.05S HX 104           
LAKE CITY      PTSUNNY   90  73  58 NW6       30.05S HX  98           
GAINESVILLE    FAIR      93  76  57 VRB5      30.06F HX 105           
PALATKA        FAIR      93  73  52 W5        30.03F HX 102           
MAYPORT NAS    FAIR      96  71  44 NW8       30.02F HX 103           
JACKSONVILLE   FAIR      95  70  44 NW10      30.01F HX 101           
JAX NAS        FAIR      97  68  38 NW12      30.02F HX 102           
JAX CECIL      MOSUNNY   99  72  41 W12       30.02F HX 107           
FERNANDINA BEA FAIR      96  71  44 W15       30.02F HX 103           
ST AUGUSTINE   FAIR      90  77  65 E12       30.03F HX 103           
PALM COAST     PTSUNNY   91  77  62 E7        30.04S HX 105           

STATION/POSITION SKY/WX   TEMP    WIND        PRES    WAVE   SWELL
                          AIR SEA DIR/SP/G            HT/PER HT/PER
                          (F)     (DEG/KT/KT) (MB)    (FT/S) (FT/S)
SHELL POINT      NOT AVBL
KEATON BEACH               86     240/  8/ 10 1017.8F
CEDAR KEY                  89     310/ 10/ 13 1018.0F
FERNANDINA                 93 85  280/  7/  9 1017.3F
30.7N   81.3W                 83                N/A     1/ 8
MAYPORT                    91 81  310/  9/ 12 1017.1F
31.4N   80.9W              86 85  210/  4/  4 1016.3F   1/ 9
ST AUGUSTINE               83 81  100/  8/  8 1017.1F

$$
FLZ040-043>046-052-053-057-058-063-144-252000-
INTERIOR CENTRAL FLORIDA
  
CITY           SKY/WX    TMP DP  RH WIND       PRES   REMARKS
OCALA          FAIR      94  75  54 CALM      30.05F HX 105           
LEESBURG       FAIR      96  73  47 CALM      30.05F HX 105           
SANFORD        FAIR      96  72  45 VRB3      30.03F HX 104           
ORLANDO EXEC   FAIR      97  70  41 VRB7      30.04F HX 103           
ORLANDO INTL   FAIR      96  71  44 NW8       30.03F HX 103           
KISSIMMEE      FAIR      95  75  52 SW5       30.05F HX 107           
WINTER HAVEN   FAIR      98  73  44 W5        30.05F HX 108           
LAKELAND       MOSUNNY   93  72  49 CALM      30.05F HX 100           
BARTOW         MOSUNNY   97  72  44 W12       30.03F HX 105           
SEBRING        FAIR      96  72  46 E5        30.04F HX 103           
OKEECHOBEE     FAIR      95  70  43 NW7       30.04F HX 101           

$$
FLZ041-047-054-059-064-141-147-252000-
EAST CENTRAL FLORIDA
  
CITY           SKY/WX    TMP DP  RH WIND       PRES   REMARKS
ORMOND BEACH   SUNNY     90  77  66 NE8       30.04S HAZE    HX 102   
DAYTONA BEACH  FAIR      91  80  70 E9        30.04S HX 109           
DELAND         FAIR      95  73  49 NW8       30.03F HX 105           
NEW SMYRNA BEA MOSUNNY   90  77  66 NE9       30.05F HX 102           
JFK SPACE CTR  FAIR      90  69  48 E9        30.03F                  
TITUSVILLE     MOSUNNY   95  79  59 E7        30.04F HX 112           
CAPE CANAVERAL FAIR      89  35  15 E9        30.03F                  
PATRICK AFB    FAIR      86  83  88 E14       30.04F HX 106           
MELBOURNE      FAIR      90  80  72 E14       30.04F HX 107           
VERO BEACH     FAIR      91  73  55 NE15      30.05F HX  99           
FT PIERCE      FAIR      91  74  57 NE9       30.05F HX 100           
STUART         SUNNY     90  73  58 NE9       30.07S SMOKE   HX  98   

STATION/POSITION SKY/WX   TEMP    WIND        PRES    WAVE   SWELL
                          AIR SEA DIR/SP/G            HT/PER HT/PER
                          (F)     (DEG/KT/KT) (MB)    (FT/S) (FT/S)
28.5N   80.2W              83 84   20/  6/ 10 1017.5F   1/ 9   2/ 9
28.9N   78.5W              84 84  320/ 10/ 12   N/A     2/ 4   2/ 8
TRIDENT PIER               85 76   60/ 10/ 12 1019.0F
28.4N   80.5W                 81                N/A     1/ 8
27.5N   80.2W                 82                N/A     1/ 7

$$
FLZ050-056-061-142-242-148-248-149-249-151-251-155-255-
160-260-252000-
WEST CENTRAL FLORIDA
  
CITY           SKY/WX    TMP DP  RH WIND       PRES   REMARKS
CRYSTAL RIVER  FAIR     N/A N/A N/A W9        30.05F                  
INVERNESS      CLOUDY    95  79  59 CALM      30.05F HAZE    HX 112   
BROOKSVILLE    FAIR      95  76  53 W9        30.06F HX 108           
CLEARWATER AIR FAIR      88  73  62 N10       30.06F HX  96           
ST PETE CLEARW FAIR      93  72  50 NW10      30.05F HX 101           
TAMPA INTL     FAIR      95  75  52 W9        30.05F HX 107           
MACDILL AFB    PTSUNNY   93  74  54 W9        30.05F HX 103           
PETER O KNIGHT PTSUNNY   95  79  59 W8        30.05F HX 112           
ST PETERSBURG  FAIR      93  72  50 W5        30.03F HX 101           
SARASOTA       FAIR      94  77  57 W15       30.04F HX 108           
VENICE         FAIR      93  79  62 NW14      30.06F HX 110           

STATION/POSITION SKY/WX   TEMP    WIND        PRES    WAVE   SWELL
                          AIR SEA DIR/SP/G            HT/PER HT/PER
                          (F)     (DEG/KT/KT) (MB)    (FT/S) (FT/S)
27.3N   84.2W                 88                N/A     1/ 6
CLEARWATER BEACH           86 90  330/  9/ 11 1018.5F
MIDDLE TAMPA BAY           88     310/  8/ 10 1018.4F
VENICE                     87 86  300/ 13/ 14 1017.9F

$$
FLZ066-069-070-075>078-162-262-165-265-252000-
SOUTHWEST FLORIDA AND KEYS
  
CITY           SKY/WX    TMP DP  RH WIND       PRES   REMARKS
PUNTA GORDA    FAIR      95  71  45 W7        30.06F HX 102           
FT MYERS       FAIR      97  71  42 W10       30.03F HX 104           
SOUTHWEST INTL FAIR      96  69  41 N9        30.04F HX 102           
NAPLES         FAIR      93  72  50 W13       30.04F HX 101           
IMMOKALEE      FAIR      99  72  41 N9        30.02F HX 107           
MARATHON       FAIR      92  76  59 VRB5      30.04F HX 104           
KEY WEST NAS   FAIR      91  75  59 N6        30.05F HX 101           
KEY WEST INTL  FAIR      88  75  65 VRB5      30.05F HX  97           

STATION/POSITION SKY/WX   TEMP    WIND        PRES    WAVE   SWELL
                          AIR SEA DIR/SP/G            HT/PER HT/PER
                          (F)     (DEG/KT/KT) (MB)    (FT/S) (FT/S)
NAPLES                     89 90              1017.8F
DRY TORTUGAS               86     120/  4/  5 1018.2F
SAND KEY                   85                 1017.8F
LONG KEY                   88     240/  4/  7 1016.9

$$
FLZ067-068-071>074-168-172>174-252000-
SOUTHEAST FLORIDA 
  
CITY           SKY/WX    TMP DP  RH WIND       PRES   REMARKS
W PALM BEACH   FAIR      92  77  61 E8        30.05F HX 105           
BOCA RATON     MOSUNNY   97  72  44 SE9       30.03F HX 105           
FT LAUDER-EXEC FAIR      95  71  45 E12       30.02F THUNDER HX 102   
FT LAUDERDALE  FAIR      93  73  52 E13       30.02F THUNDER HX 102   
POMPANO BEACH  FAIR      94  74  52 SE13      30.03F HX 104           
PEMBROKE PINES FAIR      95  70  44 E13       30.04F HX 101           
OPA LOCKA      FAIR      92  72  51 SE7       30.03F THUNDER HX  99   
MIAMI          FAIR      95  72  47 SE10      30.03F THUNDER HX 103   
WEST KENDALL   FAIR      85  75  72 NE8       30.03F                  
HOMESTEAD      FAIR      95  71  45 E6        30.03F HX 102           

STATION/POSITION SKY/WX   TEMP    WIND        PRES    WAVE   SWELL
                          AIR SEA DIR/SP/G            HT/PER HT/PER
                          (F)     (DEG/KT/KT) (MB)    (FT/S) (FT/S)
VIRGINIA KEY               88 91  130/  8/ 11 1017.0F
LAKE WORTH                 86 82   70/  7/  8 1018.7F
FOWEY ROCKS                86 85  140/  9/  9 1017.5F
SETTLEMENT POINT           86     240/  5/  6 1018.0F

$$